Terminal Aerodrome Forecast
Issued by NWS

Home | Current Version | Previous Version | Graphics & Text | Print | Product List | Glossary On
Versions: 1 2 3 4 5 6 7 8 9 10 11 12 13 14 15 16 17 18 19 20 21
000
FTUS43 KBIS 191404 AAA
TAFJMS
TAF AMD
KJMS 191404Z 1914/2012 18006KT P6SM SKC
     FM191500 16006KT 6SM BR SKC
      TEMPO 1915/1918 4SM BR SKC
     FM200000 16008KT 2SM BR SCT060
     FM200200 17009KT 1 1/2SM BR BKN035
     FM200700 17009KT 2SM BR BKN010
     FM201000 16007KT 2SM BR BKN003=

USA.gov is the U.S. government's official web portal to all federal, state and local government web resources and services.